Location: Muenchen
(48.1800°N, 11.5800°E)
Time: 20:20:55
(UTC+02:00)

Sich 1 Rocket - Visible Passes

Search period start: 30 May 2016 00:00
Search period end: 09 June 2016 00:00
Orbit: 616 x 654 km, 82.5° (Epoch: 29 May)

Date Brightness Start Highest point End Pass type
(mag) Time Alt. Az. Time Alt. Az. Time Alt. Az.
30 May 6.2 03:58:45 10° ESE 04:01:27 16° E 04:04:08 10° NE visible
31 May 5.4 04:19:41 10° SSE 04:23:30 30° E 04:27:21 10° NNE visible
02 Jun 6.3 03:28:19 10° ESE 03:30:26 13° E 03:32:34 10° NE visible
03 Jun 5.6 03:48:53 10° SE 03:52:28 25° E 03:56:06 10° NNE visible
04 Jun 4.4 04:10:25 10° SSE 04:14:38 49° E 04:18:54 10° NNE visible
05 Jun 6.4 02:58:12 10° E 02:59:27 11° E 03:00:42 10° ENE visible
06 Jun 5.8 03:18:08 10° SE 03:21:27 21° E 03:24:47 10° NE visible
07 Jun 4.7 03:39:27 10° SSE 03:43:34 41° E 03:47:43 10° NNE visible
08 Jun 3.6 04:01:27 10° S 04:05:50 83° E 04:10:16 10° N visible
